Location: Newark
(35.1686°N, 108.2815°E)
Time: 14:30:58
(UTC+00:00)

LightSail 2 - Visible Passes

Search period start: 07 April 2020 00:00
Search period end: 17 April 2020 00:00
Orbit: 694 x 724 km, 24.0° (Epoch: 06 April)

Date Brightness Start Highest point End Pass type
(mag) Time Alt. Az. Time Alt. Az. Time Alt. Az.
07 Apr 7.2 20:19:37 15° SSE 20:19:37 15° SSE 20:21:47 10° SE visible
08 Apr 6.7 21:02:47 17° SSW 21:04:38 21° S 21:08:22 10° SE visible
09 Apr 7.1 20:07:04 17° SSE 20:07:04 17° SSE 20:09:02 10° SE visible
09 Apr 6.6 21:46:26 10° SW 21:50:20 23° S 21:54:13 10° SE visible
10 Apr 6.5 20:50:14 21° SSW 20:51:13 22° S 20:55:07 10° SE visible
11 Apr 7.2 19:54:32 15° SE 19:54:32 15° SE 19:55:55 10° SE visible
11 Apr 6.6 21:33:25 11° SW 21:36:54 21° S 21:40:39 10° SE visible
12 Apr 6.5 20:37:45 22° S 20:37:47 22° S 20:41:39 10° SE visible
13 Apr 7.5 19:42:07 12° SE 19:42:07 12° SE 19:42:34 10° SE visible
13 Apr 6.8 21:20:59 13° SW 21:23:26 18° SSW 21:26:47 10° SSE visible
14 Apr 6.8 20:25:25 19° S 20:25:25 19° S 20:27:58 10° SE visible
15 Apr 6.9 21:08:47 13° SSW 21:09:54 14° SSW 21:12:27 10° SSE visible
16 Apr 7.3 20:13:21 12° SSE 20:13:21 12° SSE 20:13:58 10° SSE visible
